[[{"header":{"parameterUnit":"m.s-1","parameterCategory":1,"la1":30.2991,"la2":30.254,"lo1":-89.0895,"lo2":-89.0444,"dy":0.0017,"dx":0.0017,"nx":28,"ny":28,"refTime":"2023-09-17T09:00:00:Z","depth":0,"parameterNumber":2,"parameterNumberName":"U-component_of_WINDS"},"data":[0,0,0,0,0,0,0,0,0,0,0,0,0,0,0,0,0,0,0,0,0,0,0,0,0,0,0,0,0,0,0,0,0,0,0,0,0,0,0,0,0,0,0,0,0,0,0,0,0,0,0,0,0,0,0,0,0,0,1.847,1.847,0,1.848,1.848,1.848,1.8437,1.8435,1.8434,1.8433,1.8444,1.8445,1.8447,0,0,0,0,0,0,0,0,0,0,0,0,0,1.8416,1.8417,1.847,1.847,1.847,1.848,1.848,1.848,1.8437,1.8435,1.8434,1.8432,1.8443,1.8445,1.8447,0,0,0,0,0,0,0,0,0,0,0,0,0,1.8434,1.8417,1.847,1.845,1.8448,1.848,1.848,1.848,1.8437,1.8435,1.8434,1.8432,1.8443,1.8445,1.8447,1.8498,0,0,1.8454,1.8455,0,0,0,0,0,0,0,0,1.8433,1.8436,1.8452,1.8451,1.8449,1.8455,1.8465,1.8486,1.8438,1.8441,1.8433,1.8431,1.8449,1.8451,1.8457,1.8499,1.8499,1.8454,1.8455,1.8456,1.8457,0,0,0,0,0,0,0,1.8432,1.8435,1.8474,1.8453,1.8451,1.8441,1.8441,1.8469,1.8456,1.8441,1.8438,1.844,1.8448,1.8455,1.8457,1.85,1.8454,1.8456,1.8457,1.8458,1.8587,1.8589,0,0,0,0,0,0,1.8433,1.8434,1.8473,1.8474,1.8436,1.8444,1.8444,1.8455,1.8455,1.8454,1.8441,1.8438,1.8452,1.8454,1.8457,1.8519,1.8456,1.8458,1.8459,1.8585,1.8588,1.859,0,0,0,0,0,0,1.8432,1.8437,1.8473,1.8453,1.8457,1.8446,1.8459,1.8456,1.8463,1.8456,1.8453,1.845,1.845,1.8454,1.8489,1.8518,1.8459,1.8461,1.8583,1.8586,1.8589,1.8642,0,0,0,0,0,0,1.8431,1.8437,1.8455,1.8454,1.8458,1.8504,1.8461,1.8458,1.8467,1.8462,1.8463,1.8462,1.8449,1.8486,1.8491,1.852,1.8463,1.858,1.8584,1.8588,1.8637,1.8646,1.8654,0,0,0,0,0,1.8429,1.8469,1.8456,1.8461,1.8482,1.8506,1.8508,1.8493,1.8469,1.8489,1.8484,1.8462,1.8514,1.849,1.8495,1.8526,1.8578,1.8583,1.8588,1.8633,1.8644,1.8654,0,0,0,0,0,0,1.8474,1.8469,1.8454,1.8496,1.8502,1.8499,1.8522,1.8505,1.8517,1.8513,1.8493,1.8494,1.8533,1.8533,1.8506,1.8577,1.8542,1.8548,1.8575,1.8586,1.8594,1.8593,1.8465,0,0,0,0,0,1.8489,1.8508,1.8503,1.854,1.8544,1.8533,1.8543,1.8531,1.8536,1.8538,1.8536,1.8543,1.8561,1.8573,1.8589,1.8637,1.8638,1.8661,1.8669,1.8676,1.8682,1.8709,1.872,1.8606,1.8606,1.8606,0,0,1.8519,1.8519,1.8532,1.8549,1.8552,1.8574,1.8535,1.8559,1.8576,1.8542,1.8575,1.8575,1.8581,1.8623,1.8642,1.8624,1.8714,1.8682,1.8688,1.869,1.8715,1.8726,1.8736,1.8609,1.8608,1.8608,0,0,1.8586,1.8587,1.8619,1.8624,1.8629,1.8622,1.863,1.8631,1.8629,1.8662,1.8638,1.8658,1.8689,1.8695,1.8702,1.8775,1.8755,1.8781,1.8824,1.8851,1.886,1.8868,1.8895,1.8905,1.8786,1.8786,1.8786,0,1.8623,1.8655,1.8638,1.8664,1.8673,1.8645,1.8678,1.8683,1.8694,1.8701,1.8681,1.8722,1.8724,1.8768,1.8786,1.8792,1.8802,1.878,1.886,1.8868,1.8875,1.8901,1.8911,1.8789,1.8789,1.8789,1.8788,0,1.8701,1.8724,1.8749,1.8761,1.8772,1.8802,1.8791,1.8805,1.8793,1.8788,1.8824,1.8826,1.8843,1.8852,1.884,1.8896,1.8885,1.8863,1.8828,1.8889,1.8913,1.8923,1.8794,1.8793,1.8792,1.8791,0,0,1.8795,1.8799,1.8808,1.8814,1.882,1.8837,1.8867,1.8884,1.8897,1.8906,1.8931,1.896,1.894,1.8949,1.8937,1.8961,1.902,1.8936,1.8936,1.8952,1.9084,1.91,1.9112,1.9007,1.9009,1.9011,1.9084,0,1.8861,1.8911,1.8898,1.8948,1.897,1.8944,1.897,1.8977,1.8974,1.8993,1.899,1.9011,1.8983,1.8988,1.901,1.9008,1.9046,1.9003,1.9031,1.9033,1.9031,1.9124,1.9141,1.921,1.9093,1.9094,1.9095,0,1.8945,1.8958,1.9011,1.9015,1.9023,1.9047,1.9063,1.908,1.9089,1.9085,1.9096,1.908,1.9111,1.9076,1.9119,1.909,1.9101,1.9102,1.9104,1.9106,1.9068,1.913,1.9231,1.9242,1.911,1.9108,1.9107,0,1.9009,1.904,1.9076,1.9082,1.9088,1.9105,1.9108,1.9115,1.9126,1.9141,1.9149,1.9166,1.9176,1.919,1.9181,1.9156,1.9226,1.919,1.9225,1.9225,1.924,1.9239,1.9346,1.9247,1.9247,1.9247,1.9246,0,1.9085,1.9118,1.9106,1.9128,1.9165,1.9151,1.9188,1.9189,1.9195,1.9218,1.9197,1.9219,1.9205,1.9226,1.9219,1.9256,1.926,1.9259,1.9257,1.9261,1.9262,1.9268,1.9264,1.9249,1.9249,1.9248,1.9248,0,1.9163,1.9155,1.9193,1.9196,1.9198,1.9225,1.9228,1.925,1.9246,1.9275,1.9281,1.9276,1.93,1.9292,1.9318,1.9313,1.9361,1.9352,1.9358,1.9356,1.9392,1.9389,1.9507,1.9522,1.9413,1.9414,1.9415,0,1.9211,1.9237,1.9243,1.9257,1.9262,1.9284,1.9297,1.9284,1.9298,1.9311,1.9332,1.9354,1.9371,1.9411,1.941,1.943,1.9422,1.9462,1.9425,1.943,1.9424,1.9423,1.9426,1.947,1.9471,1.9472,1.9473,0,1.9299,1.9295,1.9314,1.9332,1.9348,1.9362,1.9374,1.9386,1.9375,1.9392,1.9417,1.9431,1.9458,1.9481,1.95,1.9504,1.9487,1.9485,1.9494,1.9499,1.9502,1.9502,1.9379,1.9482,1.9481,1.948,1.948,1.9479,1.9365,1.9387,1.9395,1.9418,1.9426,1.9438,1.9459,1.9459,1.9479,1.95,1.9492,1.9521,1.9531,1.9555,1.9562,1.9585,1.957,1.9583,1.9586,1.959,1.9595,1.9498,1.9588,1.9588,1.9588,1.9587,1.9587,0,1.9452,1.9457,1.9478,1.9496,1.9514,1.9497,1.951,1.9527,1.9552,1.9563,1.9581,1.9611,1.9634,1.9636,1.9657,1.9676,1.9669,1.9682,1.9681,1.9682,1.9607,1.9597,1.9688,1.9688,1.9687,1.9687,1.9687,1.9687,1.95,1.9537,1.9535,1.9576,1.9581,1.9609,1.9619,1.963,1.9639,1.9673,1.9692,1.9694,1.9701,1.9724,1.9745,1.9745,1.9755,1.9771,1.9768,1.9697,1.9687,1.9678,1.9669,1.9773,1.9773,1.9842,1.9843,1.9843]},{"header":{"parameterUnit":"m.s-1","parameterCategory":1,"la1":30.2991,"la2":30.254,"lo1":-89.0895,"lo2":-89.0444,"dy":0.0017,"dx":0.0017,"nx":28,"ny":28,"refTime":"2023-09-17T09:00:00:Z","depth":0,"parameterNumber":3,"parameterNumberName":"V-component_of_WINDS"},"data":[0,0,0,0,0,0,0,0,0,0,0,0,0,0,0,0,0,0,0,0,0,0,0,0,0,0,0,0,0,0,0,0,0,0,0,0,0,0,0,0,0,0,0,0,0,0,0,0,0,0,0,0,0,0,0,0,0,0,-3.6046,-3.6047,0,-3.6152,-3.6154,-3.6155,-3.6154,-3.6152,-3.6151,-3.615,-3.6255,-3.6259,-3.6263,0,0,0,0,0,0,0,0,0,0,0,0,0,-3.5839,-3.5843,-3.6045,-3.6047,-3.6048,-3.6152,-3.6154,-3.6155,-3.6154,-3.6152,-3.6151,-3.6149,-3.6254,-3.6259,-3.6264,0,0,0,0,0,0,0,0,0,0,0,0,0,-3.5935,-3.5844,-3.6045,-3.606,-3.6063,-3.6152,-3.6154,-3.6156,-3.6154,-3.6152,-3.615,-3.6148,-3.6252,-3.6258,-3.6264,-3.6345,0,0,-3.6283,-3.6286,0,0,0,0,0,0,0,0,-3.593,-3.5943,-3.6057,-3.6059,-3.6062,-3.6138,-3.612,-3.6219,-3.6155,-3.6119,-3.615,-3.6147,-3.6218,-3.6227,-3.6251,-3.635,-3.6354,-3.6284,-3.6288,-3.629,-3.6292,0,0,0,0,0,0,0,-3.5923,-3.5938,-3.6088,-3.6058,-3.6062,-3.6061,-3.6073,-3.6138,-3.6179,-3.6122,-3.6123,-3.6135,-3.6219,-3.6245,-3.6254,-3.6356,-3.6284,-3.6289,-3.6293,-3.6295,-3.6528,-3.653,0,0,0,0,0,0,-3.5914,-3.5933,-3.6084,-3.6091,-3.599,-3.6067,-3.6079,-3.6116,-3.6178,-3.6186,-3.6137,-3.6135,-3.6236,-3.6246,-3.6257,-3.6357,-3.629,-3.6296,-3.63,-3.6526,-3.6529,-3.6531,0,0,0,0,0,0,-3.5909,-3.5927,-3.608,-3.6012,-3.6031,-3.6072,-3.6113,-3.6119,-3.6145,-3.6189,-3.6196,-3.6157,-3.6234,-3.6249,-3.6324,-3.6361,-3.6299,-3.6304,-3.6523,-3.6526,-3.653,-3.6557,0,0,0,0,0,0,-3.5903,-3.5926,-3.5957,-3.6013,-3.6035,-3.6145,-3.6115,-3.6122,-3.6156,-3.6155,-3.621,-3.6217,-3.6234,-3.6315,-3.633,-3.6368,-3.6309,-3.652,-3.6524,-3.6529,-3.6553,-3.6561,-3.6568,0,0,0,0,0,-3.5896,-3.5959,-3.5958,-3.5977,-3.6075,-3.6148,-3.616,-3.618,-3.6159,-3.6191,-3.622,-3.6215,-3.6354,-3.6322,-3.634,-3.638,-3.6517,-3.6523,-3.6528,-3.6549,-3.6559,-3.6568,0,0,0,0,0,0,-3.5904,-3.5966,-3.5967,-3.6049,-3.6094,-3.6147,-3.6188,-3.6189,-3.6239,-3.6235,-3.6256,-3.6268,-3.6344,-3.6369,-3.6333,-3.6462,-3.6433,-3.6442,-3.6443,-3.6453,-3.646,-3.6453,-3.6314,0,0,0,0,0,-3.5916,-3.5971,-3.6021,-3.6089,-3.6112,-3.6146,-3.6178,-3.619,-3.6236,-3.6254,-3.6288,-3.6332,-3.6386,-3.642,-3.6472,-3.6556,-3.6569,-3.6593,-3.66,-3.6606,-3.6614,-3.6663,-3.6675,-3.655,-3.6549,-3.6549,0,0,-3.594,-3.5981,-3.6014,-3.6092,-3.6128,-3.6184,-3.6162,-3.6221,-3.6263,-3.6262,-3.6337,-3.6363,-3.6414,-3.6494,-3.6531,-3.6518,-3.6652,-3.6614,-3.6618,-3.6623,-3.667,-3.6682,-3.6692,-3.6553,-3.6553,-3.6552,0,0,-3.6013,-3.6049,-3.6111,-3.6148,-3.6203,-3.6225,-3.624,-3.6295,-3.6313,-3.6388,-3.639,-3.6439,-3.6531,-3.6568,-3.6598,-3.6688,-3.6686,-3.6704,-3.6744,-3.6791,-3.6801,-3.681,-3.6843,-3.6855,-3.6712,-3.6712,-3.6712,0,-3.6036,-3.6121,-3.6142,-3.6203,-3.6238,-3.6243,-3.6306,-3.634,-3.6408,-3.6432,-3.6416,-3.6534,-3.6568,-3.6658,-3.668,-3.6704,-3.6723,-3.6698,-3.6798,-3.6807,-3.6816,-3.6848,-3.686,-3.6714,-3.6714,-3.6713,-3.6713,0,-3.6148,-3.6207,-3.625,-3.6319,-3.6358,-3.642,-3.645,-3.6488,-3.6496,-3.6521,-3.6598,-3.6639,-3.6701,-3.6723,-3.673,-3.6815,-3.6805,-3.6793,-3.6765,-3.6829,-3.686,-3.6872,-3.6717,-3.6716,-3.6715,-3.6715,0,0,-3.6228,-3.6309,-3.6325,-3.6357,-3.6419,-3.6465,-3.6527,-3.6589,-3.6621,-3.6669,-3.6722,-3.6801,-3.6791,-3.6826,-3.6838,-3.6879,-3.695,-3.6862,-3.6864,-3.6878,-3.7048,-3.7057,-3.7071,-3.6949,-3.6951,-3.6953,-3.7044,0,-3.6309,-3.6421,-3.6442,-3.654,-3.6595,-3.6601,-3.6656,-3.67,-3.6725,-3.6775,-3.6802,-3.6858,-3.684,-3.6862,-3.6903,-3.6933,-3.6984,-3.6926,-3.6999,-3.7001,-3.6987,-3.7087,-3.7097,-3.718,-3.7056,-3.7058,-3.7059,0,-3.6418,-3.647,-3.6574,-3.6631,-3.6655,-3.6704,-3.6763,-3.6811,-3.6862,-3.6877,-3.6917,-3.6926,-3.6991,-3.6959,-3.7049,-3.7009,-3.704,-3.7059,-3.7063,-3.7071,-3.7035,-3.7099,-3.7207,-3.722,-3.7078,-3.7077,-3.7075,0,-3.6468,-3.6564,-3.664,-3.6667,-3.6734,-3.6769,-3.6798,-3.6847,-3.6883,-3.6935,-3.6959,-3.7017,-3.7049,-3.7094,-3.7117,-3.7092,-3.7207,-3.7176,-3.7222,-3.7221,-3.7246,-3.7244,-3.7362,-3.7264,-3.7264,-3.7263,-3.7263,0,-3.6557,-3.662,-3.6664,-3.671,-3.6781,-3.6806,-3.6876,-3.6905,-3.6948,-3.7,-3.7008,-3.7056,-3.7084,-3.7137,-3.7155,-3.7228,-3.7242,-3.7257,-3.7261,-3.7257,-3.7255,-3.7278,-3.7273,-3.7267,-3.7266,-3.7265,-3.7265,0,-3.6625,-3.6656,-3.6739,-3.6797,-3.6814,-3.6864,-3.6914,-3.6959,-3.6985,-3.705,-3.7067,-3.7107,-3.717,-3.7198,-3.7274,-3.7287,-3.7371,-3.737,-3.7354,-3.7356,-3.7401,-3.7397,-3.7538,-3.7558,-3.7446,-3.7447,-3.7448,0,-3.668,-3.6729,-3.6794,-3.683,-3.6861,-3.6919,-3.6957,-3.6984,-3.7023,-3.7086,-3.7123,-3.7187,-3.7239,-3.7338,-3.7374,-3.7433,-3.7434,-3.748,-3.7443,-3.7438,-3.7437,-3.7434,-3.744,-3.7487,-3.7488,-3.7489,-3.7489,0,-3.6775,-3.6789,-3.6844,-3.6906,-3.6952,-3.7001,-3.705,-3.7079,-3.7113,-3.7156,-3.7222,-3.7262,-3.7342,-3.7405,-3.7467,-3.7497,-3.7499,-3.7501,-3.7515,-3.7511,-3.7501,-3.7509,-3.7374,-3.7497,-3.7497,-3.7496,-3.7496,-3.7495,-3.6839,-3.6884,-3.6938,-3.7,-3.704,-3.7085,-3.7132,-3.7164,-3.7219,-3.7288,-3.7299,-3.7369,-3.742,-3.7503,-3.7536,-3.759,-3.7579,-3.7599,-3.7604,-3.7609,-3.7613,-3.7492,-3.7601,-3.7601,-3.7601,-3.7601,-3.7601,0,-3.6936,-3.6971,-3.7028,-3.7097,-3.7146,-3.7146,-3.72,-3.7241,-3.7303,-3.7351,-3.7403,-3.7479,-3.754,-3.7582,-3.7644,-3.768,-3.7683,-3.7696,-3.7694,-3.7701,-3.7618,-3.7601,-3.7693,-3.7693,-3.7693,-3.7693,-3.7693,-3.7693,-3.6992,-3.7069,-3.709,-3.7187,-3.7222,-3.7292,-3.7323,-3.7365,-3.7404,-3.7489,-3.7541,-3.7568,-3.7614,-3.768,-3.7737,-3.7747,-3.7771,-3.7784,-3.7794,-3.7716,-3.7707,-3.7698,-3.7681,-3.7789,-3.7789,-3.7873,-3.7874,-3.7874]}]]